Lexington Weather

Lexington, Massachusetts, USA

34°F
4/16/2021 10:57am 
  • Lexington Conditions: Snow, Fog, Overcast
  • Temperature: 34.0°F / 1.1°CWarmer 0.2°F than last hour.
  • Dew Point: 32.7°FIncreased 0.2°Fsince last hour.
  • Relative Humidity: 95
  • Wind: Wind from N N 2 mph, 10-min avg: 2 mph, gust: 4 mph
  • Barometer: 29.47 inFalling 0.03  inHg/hr Falling Slowly
  • Visibility: ½ mile
  • Snow Today: 1.3 in
  •   

Regional Weather Roundup
for Boston / Norton, MA

        
000
ASUS41 KBOX 101904
RWRBOX

REGIONAL WEATHER ROUNDUP
NATIONAL WEATHER SERVICE BOSTON/NORTON MA
300 PM EDT SAT APR 10 2021

NOTE:  "FAIR" INDICATES FEW OR NO CLOUDS BELOW 12,000 FEET WITH NO 
SIGNIFICANT WEATHER AND/OR OBSTRUCTIONS TO VISIBILITY.

MAZALL-102000-
EASTERN MASSACHUSETTS
  
CITY           SKY/WX    TMP DP  RH WIND       PRES   REMARKS
BOSTON         MOSUNNY   69  50  50 SE12      29.83F                  
BEVERLY        SUNNY     66  50  56 SE9       29.83F                  
LAWRENCE       SUNNY     74  51  44 VRB3      29.84F                  
BEDFORD        MOSUNNY   77  51  40 SW7       29.82F                  
BLUE HILL        N/A     74  51  44 SW7G17    29.84F                  
NORWOOD        PTSUNNY   77  51  40 S13G21    29.83F                  
MARSHFIELD     MOSUNNY   73  52  46 S9        29.85F                  
PLYMOUTH       SUNNY     65  50  58 S9G21     29.87                   
TAUNTON        SUNNY     72  53  51 SW12      29.87F                  
NEW BEDFORD    SUNNY     65  50  58 SW16      29.89F                  
$$

MAZALL-102000-
CAPE COD AND THE ISLANDS
  
CITY           SKY/WX    TMP DP  RH WIND       PRES   REMARKS
FALMOUTH       MOSUNNY   61  52  72 SW20G28   29.91F                  
HYANNIS        MOSUNNY   59  49  69 SW15G23   29.89F                  
CHATHAM        PTSUNNY   52  46  80 SW13G24   29.92F                  
PROVINCETOWN   SUNNY     60  49  66 SW15G21   29.88F                  
NANTUCKET      CLOUDY    50  46  86 SW15      29.94F                  
MARTHAS VNYRD  CLOUDY    53  47  79 SW20G26   29.93F                  
$$
 
MAZALL-102000-
CENTRAL AND WESTERN MASSACHUSETTS
  
CITY           SKY/WX    TMP DP  RH WIND       PRES   REMARKS
WORCESTER      MOSUNNY   73  50  44 SW12G21   29.86F                  
FITCHBURG      SUNNY     76  49  38 W12       29.83F                  
ORANGE         SUNNY     74  50  42 S9        29.86F                  
SPRINGFIELD    MOSUNNY   76  51  42 SW12      29.84F                  
WESTFIELD      PTSUNNY   76  52  43 SW13      29.84F                  
NORTH ADAMS    MOSUNNY   76  50  40 W7        29.84F                  
PITTSFIELD     MOSUNNY   72  50  45 SW10      29.86F                  
$$
 
RIZALL-102000-
RHODE ISLAND
  
CITY           SKY/WX    TMP DP  RH WIND       PRES   REMARKS
PROVIDENCE     NOT AVBL                                               
NEWPORT        SUNNY     58  49  72 SW15G23   29.91F                  
BLOCK ISLAND   SUNNY     54  48  80 SW18      29.95F                  
SMITHFIELD     PTSUNNY   73  53  49 SW9G22    29.87F                  
WESTERLY       CLOUDY    54  47  77 S10       29.94F                  
$$
 
CTZALL-102000-
CONNECTICUT
  
CITY           SKY/WX    TMP DP  RH WIND       PRES   REMARKS
BRADLEY INTL   MOSUNNY   74  51  44 SW12G20   29.86F                  
HARTFORD       MOSUNNY   72  52  49 S15       29.88F                  
BRIDGEPORT     CLOUDY    62  51  67 SW8       29.93F                  
DANBURY        CLOUDY    68  53  58 SW12G18   29.93F                  
GROTON         PTSUNNY   55  49  80 S9        29.93F                  
NEW HAVEN      CLOUDY    62  52  69 S8        29.93F                  
CHESTER        FAIR      68  54  60 SW13G20   29.93F                  
MERIDEN        PTSUNNY   68  51  54 S15G24    29.90F                  
WILLIMANTIC    CLOUDY    71  51  49 S12G20    29.87F                  
OXFORD         PTSUNNY   67  56  67 W10G20    29.93F                  
$$

MEZ002-015-021-024-NHZ003-005-008-011-012-014-VTZ005-008-102000-
NORTHERN NEW ENGLAND
  
CITY           SKY/WX    TMP DP  RH WIND       PRES   REMARKS
PORTLAND ME    MOSUNNY   67  46  47 S13       29.82F                  
BANGOR ME      MOSUNNY   71  46  40 VRB3      29.82F                  
CONCORD NH     SUNNY     75  47  36 CALM      29.82F                  
MANCHESTER NH  MOSUNNY   77  48  35 VRB5      29.81F                  
NASHUA NH      MOSUNNY   76  51  41 SE10G16   29.82F                  
PORTSMOUTH NH  MOSUNNY   72  44  36 SE10      29.83F                  
JAFFREY NH     MOSUNNY   74  49  41 SW9G17    29.86F                  
KEENE NH       SUNNY     75  50  41 S7        29.83F                  
BURLINGTON VT  MOSUNNY   73  49  42 VRB3      29.83F                  
MT. WASHINGTON CLOUDY    48  36  61 W9          N/A                   
$$

NYZ052-076-102000-
EASTERN NEW YORK
  
CITY           SKY/WX    TMP DP  RH WIND       PRES   REMARKS
ALBANY         PTSUNNY   71  50  47 SE8       29.85F                  
NEW YORK CITY  PTSUNNY   66  51  58 S12       29.93F                  
$$
 
ANZALL-102000-
MARINE OBSERVATIONS
  
STATION/POSITION TIME  TEMP    WIND        PRES    VSBY  WAVE
                       AIR SEA DIR/SP/G                  HT/PER
                 (UTC) (F)     (DEG/KT/KT) (MB)    (MI)  (FT/S)
BOSTON BUOY      1840   50 47  150/ 12/ 14 1011.2F
BUZZARDS BAY     1800          210/ 17/ 18 1014.6F
NANTUCKET SOUND  1840      47                N/A
MASS BAY-STELLWA 1804   50     170/ 10/ 14 1010.6F  1 7/8  4/11
ISLE OF SHOALS   1800   57     170/ 15/ 17 1010.8F
S OF BLOCK IS    1826      47                N/A           4/11
$$

......................KEY.........................
  SKY/WX - SKY CONDITION/PRESENT WEATHER
  TMP    - TEMPERATURE IN FAHRENHEIT
  DWPT   - DEWPOINT IN FAHRENHEIT
  RH     - RELATIVE HUMIDITY IN PERCENT
  WIND   - DIRECTION AND SPEED IN MPH
  PRES   - MEAN SEA LEVEL PRESSURE IN INCHES OF HG
  WCI    - WIND CHILL INDEX
  VSB    - VISIBILITY IN MILES
  HX     - HEAT INDEX
  TC     - TEMPERATURE IN CELSIUS
  VRB    - VARIABLE WIND DIRECTION
  N/A    - NOT AVAILABLE
  
      

Other recent Regional Weather Roundups

Fri Apr 16, 10:05am

Fri Apr 16, 9:04am

Fri Apr 16, 8:04am

Fri Apr 16, 7:04am

Fri Apr 16, 6:04am

Fri Apr 16, 5:04am

Fri Apr 16, 4:04am

Fri Apr 16, 3:04am

Fri Apr 16, 2:04am

Fri Apr 16, 1:04am

Fri Apr 16, 12:04am

Thu Apr 15, 11:05pm

Thu Apr 15, 10:04pm

Thu Apr 15, 9:04pm

Thu Apr 15, 8:04pm

Thu Apr 15, 7:05pm

Thu Apr 15, 6:04pm

Thu Apr 15, 5:05pm

Thu Apr 15, 4:04pm

Thu Apr 15, 3:05pm

Thu Apr 15, 2:04pm

Thu Apr 15, 1:05pm

Thu Apr 15, 12:04pm

Thu Apr 15, 11:04am

Thu Apr 15, 10:05am

Thu Apr 15, 9:04am

Thu Apr 15, 8:04am

Thu Apr 15, 7:04am

Thu Apr 15, 6:04am

Thu Apr 15, 5:04am

Thu Apr 15, 4:04am

Thu Apr 15, 3:04am

Thu Apr 15, 2:04am

Thu Apr 15, 1:04am

Thu Apr 15, 12:04am

Wed Apr 14, 11:04pm

Wed Apr 14, 10:04pm

Wed Apr 14, 9:04pm

Wed Apr 14, 8:04pm

Wed Apr 14, 7:04pm

Wed Apr 14, 6:04pm

Wed Apr 14, 5:05pm

Wed Apr 14, 4:04pm

Wed Apr 14, 3:05pm

Wed Apr 14, 2:04pm

Wed Apr 14, 1:05pm

Wed Apr 14, 12:04pm

Wed Apr 14, 11:04am

Wed Apr 14, 10:04am

Wed Apr 14, 9:04am

Wed Apr 14, 8:04am

Wed Apr 14, 7:04am

Wed Apr 14, 6:04am

Wed Apr 14, 5:04am

Wed Apr 14, 4:04am

Wed Apr 14, 3:04am

Wed Apr 14, 2:04am

Wed Apr 14, 1:04am

Wed Apr 14, 12:04am

Tue Apr 13, 11:04pm

Tue Apr 13, 10:05pm

Tue Apr 13, 9:05pm

Tue Apr 13, 8:05pm

Tue Apr 13, 7:04pm

Tue Apr 13, 6:04pm

Tue Apr 13, 5:05pm

Tue Apr 13, 4:04pm

Tue Apr 13, 3:04pm

Tue Apr 13, 2:05pm

Tue Apr 13, 1:04pm

Tue Apr 13, 12:05pm

Tue Apr 13, 11:05am

Tue Apr 13, 10:04am

Tue Apr 13, 9:04am

Tue Apr 13, 8:04am

Tue Apr 13, 7:04am

Tue Apr 13, 6:04am

Tue Apr 13, 5:04am

Tue Apr 13, 4:04am

Tue Apr 13, 3:04am

Tue Apr 13, 2:04am

Tue Apr 13, 1:04am

Tue Apr 13, 12:05am

Mon Apr 12, 11:04pm

Mon Apr 12, 10:04pm

Mon Apr 12, 9:04pm

Mon Apr 12, 8:04pm

Mon Apr 12, 7:05pm

Mon Apr 12, 6:04pm

Mon Apr 12, 5:04pm

Mon Apr 12, 4:04pm

Mon Apr 12, 3:05pm

Mon Apr 12, 2:04pm

Mon Apr 12, 1:05pm

Mon Apr 12, 12:04pm

Mon Apr 12, 11:04am

Mon Apr 12, 10:04am

Mon Apr 12, 9:04am

Mon Apr 12, 8:04am

Mon Apr 12, 7:04am

Mon Apr 12, 6:04am

Mon Apr 12, 5:04am

Mon Apr 12, 4:04am

Mon Apr 12, 3:04am

Mon Apr 12, 2:04am

Mon Apr 12, 1:05am

Mon Apr 12, 12:04am

Sun Apr 11, 11:04pm

Sun Apr 11, 10:04pm

Sun Apr 11, 9:04pm

Sun Apr 11, 8:04pm

Sun Apr 11, 7:04pm

Sun Apr 11, 6:05pm

Sun Apr 11, 5:05pm

Sun Apr 11, 4:04pm

Sun Apr 11, 3:05pm

Sun Apr 11, 2:05pm

Sun Apr 11, 1:05pm

Sun Apr 11, 12:04pm

Sun Apr 11, 11:05am

Sun Apr 11, 10:05am

Sun Apr 11, 9:04am

Sun Apr 11, 8:04am

Sun Apr 11, 7:04am

Sun Apr 11, 6:04am

Sun Apr 11, 5:04am

Sun Apr 11, 4:04am

Sun Apr 11, 3:04am

Sun Apr 11, 2:04am

Sun Apr 11, 1:05am

Sun Apr 11, 12:04am

Sat Apr 10, 11:05pm

Sat Apr 10, 10:04pm

Sat Apr 10, 9:04pm

Sat Apr 10, 8:04pm

Sat Apr 10, 7:05pm

Sat Apr 10, 6:04pm

Sat Apr 10, 5:04pm

Sat Apr 10, 4:04pm

Sat Apr 10, 2:05pm

Sat Apr 10, 1:04pm

Sat Apr 10, 12:04pm

Sat Apr 10, 11:04am

Sat Apr 10, 10:04am

Sat Apr 10, 9:04am

Sat Apr 10, 8:04am

Sat Apr 10, 7:04am

Sat Apr 10, 6:04am

Sat Apr 10, 5:04am

Sat Apr 10, 4:04am

Sat Apr 10, 3:04am

Sat Apr 10, 2:04am

Sat Apr 10, 1:05am

Sat Apr 10, 12:04am

Fri Apr 9, 11:04pm

Fri Apr 9, 10:05pm

Fri Apr 9, 9:04pm

Fri Apr 9, 8:05pm

Fri Apr 9, 7:05pm

Fri Apr 9, 6:04pm

Fri Apr 9, 5:04pm

Fri Apr 9, 4:05pm

Fri Apr 9, 3:05pm

Fri Apr 9, 2:04pm

Fri Apr 9, 1:04pm

Fri Apr 9, 12:04pm

Fri Apr 9, 11:05am

Meta data:

ID: d883599e-4fe7-444e-9321-94b25da3e6e7
Link: https://api.weather.gov/products/d883599e-4fe7-444e-9321-94b25da3e6e7